Regional Weather Roundup
Issued by NWS Albany, NY

Home | Current Version | Previous Version | Text Only | Print | Product List | Glossary On
Versions: 1 2 3 4 5 6 7 8 9 10 11 12 13 14 15 16 17 18 19 20 21 22 23 24 25 26 27 28 29 30 31 32 33 34 35 36 37 38 39 40 41 42 43 44 45 46 47 48 49 50
000
ASUS41 KALY 241410
RWRALY

NEW YORK STATE HOURLY WEATHER ROUNDUP
NATIONAL WEATHER SERVICE ALBANY NY
900 AM EST FRI FEB 24 2017

NOTE: "FAIR" INDICATES FEW OR NO CLOUDS BELOW 12,000 FEET WITH NO
SIGNIFICANT WEATHER AND/OR NO OBSTRUCTIONS TO VISIBILITY.

NYZ032-033-038>043-046>054-057>066-NYZ062>081-082-084-241500-
EAST


CITY           SKY/WX    TMP DP  RH WIND       PRES   REMARKS
ALBANY         CLOUDY    48  44  86 CALM      29.90S
GLENS FALLS    CLOUDY    45  40  82 E3        29.90F
POUGHKEEPSIE   CLOUDY    57  51  80 S7        29.91S
NEWBURGH       PTSUNNY   57  54  88 CALM      29.93R
MONTGOMERY     CLOUDY    53  51  93 CALM      29.91R
WHITE PLAINS   MOSUNNY   53  49  86 CALM      29.95R
ISLIP          MOSUNNY   57  52  83 SW12      29.97R
NEW YORK CITY  PTSUNNY   60  50  69 S6        29.95R
CENTRAL PARK   SUNNY     61  52  72 SW12G21   29.97R
$$

NYZ005>009-017-018-044>046-055-056-241500-
CENTRAL


CITY           SKY/WX    TMP DP  RH WIND       PRES   REMARKS
FULTON         RAIN      42  40  92 CALM      29.83S FOG
SYRACUSE       TSTM      42  42 100 E13       29.84F FOG
ROME           LGT RAIN  43  43 100 S5        29.86S FOG
ELMIRA         MOSUNNY   50  45  83 CALM      29.82F
BINGHAMTON     CLOUDY    53  50  89 S6        29.84S
MONTICELLO     MOSUNNY   52  50  93 E5        29.93R
$$

NYZ026>034-041>043-087-241500-
NORTH


CITY           SKY/WX    TMP DP  RH WIND       PRES   REMARKS
WATERTOWN      LGT RAIN  39  38  96 NE10      29.85S WCI  32
FORT DRUM      NOT AVBL
OGDENSBURG     CLOUDY    37  34  88 NE6       29.90S WCI  33
MASSENA        CLOUDY    38  33  82 NE7       29.92S WCI  33
SARANAC LAKE   CLOUDY    37  37 100 E3        29.84F FOG
PLATTSBURGH    MOSUNNY   42  37  82 N8        29.92F
$$

NYZ001>004-010>016-019>021-085-241500-
WEST


CITY           SKY/WX    TMP DP  RH WIND       PRES   REMARKS
NIAGARA FALLS  LGT RAIN  45  41  86 SE15      29.73F FOG
BUFFALO        RAIN      46  44  93 E5        29.77R FOG
DUNKIRK        CLOUDY    48  48 100 SE8       29.75S FOG
JAMESTOWN        N/A     55  52  88 S10       29.77S
WELLSVILLE     PTSUNNY   60  51  72 SW9       29.82S
ROCHESTER      CLOUDY    43  42  97 E7        29.81R
PENN YAN       CLOUDY    46  42  86 SW3       29.81F
$$

             KEY
       WCI = WIND CHILL INDEX
       VSB = VISIBILITY
       HX  = HEAT INDEX
$$



USA.gov is the U.S. government's official web portal to all federal, state and local government web resources and services.